METAR AND TAF INFORMATION


GMMN 200430Z 05003KT 9999 SCT016 18/18 Q1017 NOSIG
GMMN 200400Z 05003KT 9999 SCT016 18/18 Q1017 NOSIG
TAF GMMN 192300Z 2000/2106 36006KT 8000 NSC PROB30 TEMPO 2002/2007 3000 BR SCT006 BECMG 2010/2012 34012KT BECMG 2021/2023 04005KT 8000

 AIRPORT MAP

 RUNWAY INFORMATION
Runway 17L Runway length 12205 ft Runway width 148 ft
Runway elevation 633 ft Runway displaced threshold 0 ft Runway heading 164
Runway 35R Runway length 12205 ft Runway width 148 ft
Runway elevation 656 ft Runway displaced threshold 0 ft Runway heading 344
Runway 17R Runway length 12205 ft Runway width 148 ft
Runway elevation 636 ft Runway displaced threshold 0 ft Runway heading 164
Runway 35L Runway length 12205 ft Runway width 148 ft
Runway elevation 656 ft Runway displaced threshold 0 ft Runway heading 344

 AIRPORT FREQUENCIES
Type APP Name APP Frequency 121.3 MHZ
Type ATIS Name ATIS Frequency 126.4 MHZ
Type TWR Name TWR Frequency 118.5 MHZ

 AIRPORT NEAR NAVIGATION AIDS
Type VOR-DME Name Casablanca Frequency 114000 KHZ